Tucson Davis Monthan, AZ

9:15 AM MST on July 27, 2017 (GMT -0700)
Davis-Monthan Air Force Base

Weather History for KDMA - September, 2013

Change the Weather History Date:

Wednesday, September 11, 2013

  Actual Average Record
Temperature  
Mean Temperature 77 °F -  
Max Temperature 89 °F 95 °F 107 °F (1990)
Min Temperature 65 °F 69 °F 58 °F (1982)
Cooling Degree Days 12    
Growing Degree Days 27 (Base 50)    
Moisture  
Dew Point 58 °F    
Average Humidity 53    
Maximum Humidity 91    
Minimum Humidity 29    
Precipitation  
Precipitation 0.00 in - - ()
Sea Level Pressure  
Sea Level Pressure 29.89 in    
Wind  
Wind Speed 6 mph (NW)    
Max Wind Speed 16 mph    
Max Gust Speed 24 mph    
Visibility 10 miles    
Events      
Averages and records for this station are not official NWS values.
T = Trace of Precipitation, MM = Missing Value Source: NWS Daily Summary

Daily Weather History Graph

Daily Weather History Graph

Search for Another Location

Airport or City:

Trip Planner

Search our weather history database for the weather conditions in past years. The results will help you decide how hot, cold, wet, or windy it might be!

Date:

Astronomy

Sep. 11, 2013 Rise Set
Actual Time 6:05 AM MST 6:34 PM MST
Civil Twilight 5:40 AM MST 6:58 PM MST
Nautical Twilight 5:11 AM MST 7:27 PM MST
Astronomical Twilight 4:42 AM MST 7:57 PM MST
Moon 12:14 PM MST (9/11) 10:56 PM MST (9/11)
Length of Visible Light 13h 18m
Length of Day
12h 29m
Waxing Crescent, 40% of the Moon is Illuminated
Sep 11
Waxing Crescent
Sep 12
First Quarter
Sep 19
Full
Sep 26
Last Quarter
Oct 4
New

Hourly Weather History & Observations

Time (MST) Temp. Heat Index Dew Point Humidity Pressure Visibility Wind Dir Wind Speed Gust Speed Precip Events Conditions
12:58 AM 70.3 °F - 64.0 °F 80% 29.88 in 10.0 mi South 3.5 mph - N/A   Scattered Clouds
1:58 AM 70.0 °F - 64.4 °F 82% 29.88 in 10.0 mi SSE 5.8 mph - N/A   Clear
2:58 AM 68.7 °F - 63.7 °F 84% 29.99 in 10.0 mi SSE 5.8 mph - N/A   Clear
3:58 AM 68.0 °F - 63.7 °F 86% 29.99 in 10.0 mi Calm Calm - N/A   Clear
4:58 AM 66.9 °F - 63.3 °F 88% 29.88 in 10.0 mi ESE 5.8 mph - N/A   Clear
5:58 AM 65.8 °F - 63.1 °F 91% 29.91 in 10.0 mi SE 6.9 mph - N/A   Clear
6:58 AM 68.0 °F - 62.6 °F 83% 29.93 in 10.0 mi South 3.5 mph - N/A   Clear
7:55 AM 71.6 °F - 62.6 °F 73% 30.04 in 10.0 mi South 4.6 mph - N/A   Clear
8:55 AM 76.5 °F - 62.4 °F 62% 29.90 in 10.0 mi ESE 4.6 mph - N/A   Clear
10:58 AM 81.7 °F 81.5 °F 57.0 °F 43% 29.92 in 10.0 mi Variable 2.3 mph - N/A   Clear
11:58 AM 84.0 °F - 52.5 °F 34% 29.90 in 10.0 mi Calm Calm - N/A   Clear
12:58 PM 85.5 °F 83.7 °F 53.1 °F 33% 29.88 in 10.0 mi North 10.4 mph - N/A   Clear
1:58 PM 88.2 °F 86.1 °F 54.0 °F 31% 29.86 in 10.0 mi North 9.2 mph 18.4 mph N/A   Clear
2:58 PM 88.3 °F 86.3 °F 53.8 °F 31% 29.84 in 10.0 mi NNW 12.7 mph - N/A   Clear
3:39 PM 89.6 °F 87.3 °F 53.6 °F 29% 29.95 in 10.0 mi NNW 16.1 mph 20.7 mph N/A   Clear
3:45 PM 89.6 °F 87.3 °F 53.6 °F 29% 29.94 in 10.0 mi NW 15.0 mph 24.2 mph N/A   Clear
3:58 PM 89.2 °F 87.1 °F 53.6 °F 30% 29.82 in 10.0 mi WNW 11.5 mph - N/A   Clear
4:58 PM 88.2 °F - 52.7 °F 30% 29.81 in 10.0 mi NNW 16.1 mph 21.9 mph N/A   Clear
5:58 PM 86.4 °F - 51.8 °F 30% 29.81 in 10.0 mi NW 16.1 mph - N/A   Clear
6:58 PM 83.7 °F - 52.2 °F 34% 29.83 in 10.0 mi NW 11.5 mph - N/A   Clear
7:58 PM 81.9 °F 81.1 °F 53.6 °F 38% 29.83 in 10.0 mi NW 12.7 mph - N/A   Clear
8:58 PM 80.1 °F 80.2 °F 55.4 °F 43% 29.84 in 10.0 mi WNW 8.1 mph - N/A   Clear
9:58 PM 78.6 °F - 55.9 °F 46% 29.84 in 10.0 mi NW 8.1 mph - N/A   Clear
10:58 PM 77.0 °F - 57.0 °F 50% 29.85 in 10.0 mi Variable 1.2 mph - N/A   Clear
11:58 PM 74.1 °F - 58.1 °F 57% 29.85 in 10.0 mi SE 4.6 mph - N/A   Clear